EW3281 Weather Reports


Display with metric or nautical units.
time (UTC)temp
F
wind
direction
speed
MPH
gust
MPH
rain 1hr
in
rain 24hr
in
rain mn
in
humidity
%
barometer
mb
20260902193628 79 60 0.0 0.0 0.00 0.11 0.00 58 1018.7
20260902193028 80 347 0.0 0.0 0.00 0.11 0.00 58 1018.8
20260902192527 80 252 0.0 0.0 0.00 0.11 0.00 56 1018.8
20260902192026 81 33 0.0 0.0 0.00 0.11 0.00 58 1018.8
20260902191526 80 124 0.0 0.0 0.00 0.11 0.00 56 1018.8
20260902191024 80 42 0.0 0.0 0.00 0.11 0.00 58 1018.8
20260902190524 79 57 0.0 1.0 0.00 0.11 0.00 58 1018.9
20260902190034 79 75 0.0 1.0 0.00 0.11 0.00 57 1018.9
20260902185524 80 13 0.0 0.0 0.00 0.11 0.00 58 1018.8
20260902185023 79 352 0.0 0.0 0.00 0.11 0.00 60 1018.9
20260902184527 79 38 0.0 0.0 0.00 0.11 0.00 60 1018.9
20260902184025 79 39 0.0 0.0 0.00 0.11 0.00 59 1018.9
20260902183520 79 78 0.0 0.0 0.00 0.11 0.00 59 1018.9
20260902183021 79 28 0.0 0.0 0.00 0.32 0.00 58 1018.8
20260902182523 79 11 0.0 0.0 0.00 0.32 0.00 58 1018.7
20260902182019 79 316 0.0 0.0 0.00 0.32 0.00 59 1018.6
20260902181519 78 209 0.0 0.0 0.00 0.32 0.00 61 1018.8
20260902181023 79 44 0.0 0.0 0.00 0.32 0.00 58 1018.6
20260902180517 79 76 0.0 0.0 0.00 0.32 0.00 61 1018.6
20260902180016 79 323 0.0 0.0 0.00 0.32 0.00 59 1018.8
20260902175516 78 259 0.0 0.0 0.00 0.32 0.00 60 1018.8
20260902175016 78 313 0.0 0.0 0.00 0.32 0.00 61 1018.9
20260902174516 79 18 0.0 0.0 0.00 0.32 0.00 62 1018.8
20260902174013 79 18 0.0 0.0 0.00 0.32 0.00 62 1018.8
20260902173513 79 210 0.0 0.0 0.00 0.32 0.00 59 1018.9
20260902173014 79 209 0.0 0.0 0.00 0.34 0.00 61 1018.9
20260902172515 78 191 0.0 0.0 0.00 0.34 0.00 61 1019.0
20260902172014 78 253 0.0 0.0 0.00 0.34 0.00 63 1018.9
20260902171510 78 128 0.0 0.0 0.00 0.34 0.00 60 1018.9
20260902171009 78 193 0.0 0.0 0.00 0.34 0.00 62 1019.1
20260902170508 78 214 0.0 0.0 0.00 0.34 0.00 63 1019.2
20260902170009 78 214 0.0 0.0 0.00 0.34 0.00 64 1019.2
20260902165507 78 344 0.0 0.0 0.00 0.34 0.00 64 1019.2
20260902165008 77 205 0.0 0.0 0.00 0.34 0.00 65 1019.2
20260902164506 76 5 0.0 0.0 0.00 0.34 0.00 67 1019.2
20260902164004 75 5 0.0 0.0 0.00 0.34 0.00 67 1019.3
20260902163504 75 6 0.0 0.0 0.00 0.34 0.00 65 1019.3
20260902163003 75 4 0.0 0.0 0.00 0.43 0.00 65 1019.3
20260902162502 76 346 0.0 0.0 0.00 0.43 0.00 68 1019.2
20260902162104 75 237 0.0 0.0 0.00 0.43 0.00 69 1019.3
20260902161603 74 348 0.0 0.0 0.00 0.43 0.00 70 1019.5
20260902161059 74 7 0.0 0.0 0.00 0.43 0.00 70 1019.4
20260902160558 74 7 0.0 0.0 0.00 0.43 0.00 67 1019.6
20260902160056 74 339 0.0 0.0 0.00 0.43 0.00 70 1019.7
20260902155555 73 212 0.0 0.0 0.00 0.43 0.00 72 1019.8
20260902155054 72 137 0.0 0.0 0.00 0.43 0.00 70 1019.9
20260902154554 72 139 0.0 0.0 0.00 0.43 0.00 73 1019.9
20260902153555 72 134 0.0 0.0 0.00 0.43 0.00 73 1019.9
20260902153053 71 182 0.0 0.0 0.00 0.59 0.43 74 1019.9
20260902152552 71 220 0.0 0.0 0.00 0.59 0.43 73 1020.0
20260902152051 71 221 0.0 0.0 0.00 0.59 0.43 72 1020.1
20260902151558 70 1 0.0 0.0 0.00 0.59 0.43 77 1020.0
20260902151049 69 345 0.0 0.0 0.00 0.59 0.43 78 1019.8
20260902150548 69 354 0.0 0.0 0.00 0.59 0.43 76 1019.8
20260902150046 69 75 0.0 0.0 0.00 0.59 0.43 80 1020.0
20260902145544 68 355 0.0 0.0 0.00 0.59 0.43 80 1020.1
20260902145044 68 358 0.0 0.0 0.00 0.59 0.43 85 1020.0
20260902144556 67 307 0.0 0.0 0.00 0.59 0.43 88 1019.9
20260902143540 67 357 0.0 0.0 0.00 0.59 0.43 90 1019.7
20260902143039 67 357 0.0 0.0 0.00 0.75 0.43 92 1019.9
20260902142537 66 357 0.0 0.0 0.00 0.75 0.43 92 1019.9
20260902142037 66 349 0.0 0.0 0.00 0.75 0.43 94 1019.7
20260902141539 65 356 0.0 0.0 0.00 0.75 0.43 95 1019.6
20260902141037 65 356 0.0 0.0 0.00 0.75 0.43 96 1019.5
20260902140534 65 347 0.0 0.0 0.00 0.75 0.43 97 1019.5
20260902140133 65 347 0.0 0.0 0.00 0.75 0.43 97 1019.5
20260902135532 65 348 0.0 0.0 0.00 0.75 0.43 97 1019.3
20260902135033 65 3 0.0 0.0 0.00 0.75 0.43 97 1019.4
20260902134535 64 323 0.0 0.0 0.00 0.75 0.43 97 1019.3
20260902133532 64 358 0.0 0.0 0.00 0.75 0.43 98 1019.1
20260902133032 65 351 0.0 0.0 0.00 0.80 0.43 98 1019.1
20260902132532 64 347 0.0 0.0 0.00 0.80 0.43 98 1019.0
20260902132030 64 340 0.0 0.0 0.00 0.80 0.43 98 1018.9
20260902131530 64 341 0.0 0.0 0.00 0.80 0.43 98 1019.1
20260902131032 64 248 0.0 0.0 0.00 0.80 0.43 98 1019.2
20260902130530 64 328 0.0 0.0 0.00 0.80 0.43 98 1019.1
20260902130036 64 323 0.0 0.0 0.00 0.80 0.43 98 1019.1
20260902125533 64 302 0.0 0.0 0.00 0.80 0.43 98 1019.3
20260902125029 64 302 0.0 0.0 0.00 0.80 0.43 98 1019.4
20260902124532 63 321 0.0 0.0 0.00 0.80 0.43 98 1019.3
20260902123534 63 322 0.0 0.0 0.00 0.80 0.43 98 1019.4
20260902123035 63 321 0.0 0.0 0.00 0.80 0.43 98 1019.4
20260902122534 63 321 0.0 0.0 0.00 0.80 0.43 98 1019.3
20260902122034 63 321 0.0 0.0 0.00 0.80 0.43 98 1019.4
20260902121535 63 321 0.0 0.0 0.00 0.80 0.43 98 1019.4
20260902121034 63 322 0.0 0.0 0.00 0.80 0.43 98 1019.5
20260902120533 62 321 0.0 0.0 0.00 0.80 0.43 98 1019.6
20260902120032 62 321 0.0 0.0 0.00 0.80 0.43 98 1019.6
20260902115533 62 321 0.0 0.0 0.00 0.80 0.43 98 1019.6
20260902115032 62 321 0.0 0.0 0.00 0.80 0.43 98 1019.7
20260902114535 61 321 0.0 0.0 0.00 0.80 0.43 98 1019.7
20260902113537 61 321 0.0 0.0 0.00 0.80 0.43 98 1019.7
20260902113044 61 321 0.0 0.0 0.00 0.80 0.43 98 1019.7
20260902112536 61 321 0.0 0.0 0.00 0.80 0.43 98 1019.6
20260902112035 61 321 0.0 0.0 0.00 0.80 0.43 98 1019.5
20260902111542 60 321 0.0 0.0 0.00 0.80 0.43 98 1019.5
20260902111034 60 321 0.0 0.0 0.00 0.80 0.43 98 1019.4
20260902110534 60 321 0.0 0.0 0.00 0.80 0.43 98 1019.5
20260902110033 60 321 0.0 0.0 0.00 0.80 0.43 98 1019.5
20260902105533 60 321 0.0 0.0 0.00 0.80 0.43 98 1019.3
20260902105033 59 321 0.0 0.0 0.00 0.80 0.43 98 1019.2
20260902104539 59 321 0.0 0.0 0.00 0.80 0.43 98 1019.2
20260902103524 59 321 0.0 0.0 0.00 0.80 0.43 98 1019.1
20260902103021 59 321 0.0 0.0 0.00 0.80 0.43 98 1019.0
20260902102520 59 321 0.0 0.0 0.00 0.80 0.43 98 1019.0
20260902102020 59 321 0.0 0.0 0.00 0.80 0.43 98 1018.9
20260902101528 59 321 0.0 0.0 0.00 0.80 0.43 98 1018.8
20260902101019 59 321 0.0 0.0 0.00 0.80 0.43 98 1018.7
20260902100520 59 321 0.0 0.0 0.00 0.80 0.43 98 1018.8
20260902100020 59 321 0.0 0.0 0.00 0.80 0.43 98 1018.7
20260902095520 59 321 0.0 0.0 0.00 0.80 0.43 98 1018.6
20260902095018 59 321 0.0 0.0 0.00 0.80 0.43 98 1018.7
20260902094518 59 321 0.0 0.0 0.00 0.80 0.43 98 1018.5
20260902093517 59 321 0.0 0.0 0.00 0.80 0.43 98 1018.6
20260902093023 59 321 0.0 0.0 0.00 0.80 0.43 98 1018.5
20260902092522 59 321 0.0 0.0 0.00 0.80 0.43 98 1018.4
20260902092016 59 321 0.0 0.0 0.00 0.80 0.43 98 1018.5
20260902091516 59 321 0.0 0.0 0.00 0.80 0.43 98 1018.5
20260902091016 59 321 0.0 0.0 0.00 0.80 0.43 98 1018.3
20260902090516 59 321 0.0 0.0 0.00 0.80 0.43 98 1018.3
20260902090017 59 321 0.0 0.0 0.00 0.80 0.43 98 1018.2
20260902085516 59 321 0.0 0.0 0.00 0.80 0.43 98 1018.3
20260902085015 59 321 0.0 0.0 0.00 0.80 0.43 98 1018.4
20260902084515 59 321 0.0 0.0 0.00 0.80 0.43 98 1018.4
20260902083517 59 321 0.0 0.0 0.00 0.80 0.43 98 1018.4
20260902083016 59 321 0.0 0.0 0.00 0.80 0.43 98 1018.4
20260902082518 59 321 0.0 0.0 0.00 0.80 0.43 98 1018.4
20260902082020 59 321 0.0 0.0 0.00 0.80 0.43 97 1018.3
20260902081515 59 321 0.0 0.0 0.00 0.80 0.43 97 1018.2
20260902081014 59 321 0.0 0.0 0.00 0.80 0.43 97 1018.3
20260902080514 59 321 0.0 0.0 0.00 0.80 0.43 97 1018.2
20260902080014 59 321 0.0 0.0 0.00 0.80 0.43 97 1018.2
20260902075514 60 321 0.0 0.0 0.00 0.80 0.43 98 1018.3
20260902075013 60 321 0.0 0.0 0.00 0.80 0.43 98 1018.4
20260902074513 60 321 0.0 0.0 0.00 0.80 0.43 98 1018.3
20260902073510 60 321 0.0 0.0 0.00 0.80 0.43 98 1018.4
20260902073010 60 321 0.0 0.0 0.00 0.80 0.43 98 1018.4
20260902072510 60 321 0.0 0.0 0.00 0.80 0.43 98 1018.3
20260902072013 60 321 0.0 0.0 0.00 0.80 0.43 98 1018.3
20260902071509 60 321 0.0 0.0 0.00 0.80 0.43 98 1018.1
20260902071009 60 321 0.0 0.0 0.00 0.80 0.43 98 1018.2
20260902070508 60 227 0.0 0.0 0.00 0.80 0.43 98 1018.1
20260902070008 60 227 0.0 0.0 0.00 0.80 0.43 98 1018.0
20260902065512 60 227 0.0 0.0 0.00 0.80 0.43 98 1018.1
20260902065009 60 227 0.0 0.0 0.00 0.80 0.43 98 1018.1
20260902064507 60 227 0.0 0.0 0.00 0.80 0.43 98 1017.9
20260902063510 60 227 0.0 0.0 0.00 0.80 0.43 98 1018.0
20260902063007 60 227 0.0 0.0 0.00 0.80 0.43 98 1017.9
20260902062509 60 227 0.0 0.0 0.00 0.80 0.43 98 1018.1
20260902062006 60 227 0.0 0.0 0.00 0.80 0.43 98 1017.9
20260902061509 60 227 0.0 0.0 0.00 0.80 0.43 98 1017.9
20260902061006 60 227 0.0 0.0 0.00 0.80 0.43 98 1017.9
20260902060505 60 227 0.0 0.0 0.00 0.80 0.43 98 1017.9
20260902060006 60 227 0.0 0.0 0.00 0.80 0.43 97 1017.9
20260902055506 60 227 0.0 0.0 0.00 0.80 0.43 98 1017.9
20260902055005 60 227 0.0 0.0 0.00 0.80 0.43 98 1017.9
20260902054505 60 227 0.0 0.0 0.00 0.80 0.43 98 1017.8
20260902053505 60 227 0.0 0.0 0.00 0.80 0.43 98 1017.8
20260902053007 60 227 0.0 0.0 0.00 0.80 0.43 98 1017.7
20260902052511 60 226 0.0 0.0 0.00 0.80 0.43 98 1017.8
20260902052006 60 225 0.0 0.0 0.00 0.80 0.43 98 1017.8
20260902051505 60 225 0.0 0.0 0.00 0.80 0.43 98 1017.7
20260902051008 60 225 0.0 0.0 0.00 0.80 0.43 98 1017.6
20260902050507 60 225 0.0 0.0 0.00 0.80 0.43 98 1017.4
20260902050009 60 225 0.0 0.0 0.00 0.80 0.43 98 1017.6
20260902045503 60 225 0.0 0.0 0.00 0.80 0.43 98 1017.7
20260902045003 60 225 0.0 0.0 0.00 0.80 0.43 97 1017.7
20260902044504 60 225 0.0 0.0 0.00 0.80 0.43 97 1017.7
20260902043501 60 225 0.0 0.0 0.00 0.80 0.43 97 1017.7
20260902043002 60 225 0.0 0.0 0.00 0.80 0.43 97 1017.7
20260902042501 60 225 0.0 0.0 0.00 0.80 0.43 97 1017.8
20260902042100 60 225 0.0 0.0 0.00 0.80 0.43 97 1017.6
20260902041601 60 225 0.0 0.0 0.00 0.80 0.43 97 1017.4
20260902041059 60 225 0.0 0.0 0.00 0.80 0.43 97 1017.4
20260902040559 60 225 0.0 0.0 0.00 0.80 0.43 97 1017.3
20260902040059 60 225 0.0 0.0 0.00 0.80 0.43 97 1017.3
20260902035558 60 225 0.0 0.0 0.00 0.80 0.43 97 1017.2
20260902035058 60 225 0.0 0.0 0.00 0.80 0.43 97 1017.2
20260902034603 60 225 0.0 0.0 0.00 0.80 0.43 97 1017.2
20260902033500 60 225 0.0 0.0 0.00 0.80 0.43 97 1017.1
20260902033001 60 225 0.0 0.0 0.00 0.80 0.43 97 1017.2
20260902032601 61 225 0.0 0.0 0.00 0.80 0.43 97 1017.1
20260902032100 60 225 0.0 0.0 0.00 0.80 0.43 97 1017.1
20260902031600 60 225 0.0 0.0 0.00 0.80 0.43 97 1017.1
20260902031100 61 225 0.0 0.0 0.00 0.80 0.43 97 1017.1
20260902030602 60 225 0.0 0.0 0.00 0.80 0.43 97 1017.2
20260902030058 61 225 0.0 0.0 0.00 0.80 0.43 97 1017.1
20260902025558 60 225 0.0 0.0 0.00 0.80 0.43 97 1017.1
20260902025058 60 225 0.0 0.0 0.00 0.80 0.43 97 1017.1
20260902024607 60 225 0.0 0.0 0.00 0.80 0.43 97 1017.0
20260902023555 60 225 0.0 0.0 0.00 0.80 0.43 97 1016.9
20260902023055 60 225 0.0 0.0 0.00 0.80 0.43 97 1016.9
20260902022557 60 225 0.0 0.0 0.00 0.80 0.43 97 1017.0
20260902022054 60 225 0.0 0.0 0.00 0.80 0.43 97 1017.0
20260902021611 60 225 0.0 0.0 0.00 0.80 0.43 97 1016.9
20260902021054 60 225 0.0 0.0 0.00 0.80 0.43 97 1016.7
20260902020554 60 226 0.0 0.0 0.00 0.80 0.43 97 1016.7
20260902020055 60 225 0.0 0.0 0.00 0.80 0.43 97 1016.9
20260902015554 60 225 0.0 0.0 0.00 0.80 0.43 97 1016.9
20260902015054 60 225 0.0 0.0 0.00 0.80 0.43 97 1016.9
20260902014554 60 225 0.0 0.0 0.00 0.80 0.43 97 1017.0
20260902013552 60 225 0.0 0.0 0.00 0.80 0.43 97 1016.6
20260902013100 60 226 0.0 0.0 0.00 0.80 0.43 97 1016.6
20260902012553 60 225 0.0 0.0 0.00 0.80 0.43 97 1016.6
20260902012052 60 226 0.0 0.0 0.00 0.80 0.43 97 1016.7
20260902011553 60 225 0.0 0.0 0.00 0.80 0.43 97 1016.8
20260902011052 60 225 0.0 0.0 0.00 0.80 0.43 97 1016.8
20260902010552 60 225 0.0 0.0 0.00 0.80 0.43 97 1016.8
20260902010056 60 225 0.0 0.0 0.00 0.80 0.43 97 1016.7
20260902005551 60 225 0.0 0.0 0.00 0.80 0.43 97 1016.7
20260902005051 60 225 0.0 0.0 0.00 0.80 0.43 97 1016.6
20260902004550 60 225 0.0 0.0 0.00 0.80 0.43 97 1016.6
20260902003514 60 226 0.0 0.0 0.00 0.80 0.43 97 1016.8
20260902003014 60 225 0.0 0.0 0.00 0.80 0.43 97 1016.7
20260902002514 61 225 0.0 0.0 0.00 0.80 0.43 97 1016.7
20260902002013 61 225 0.0 0.0 0.00 0.80 0.43 97 1016.7
20260902001514 61 225 0.0 0.0 0.00 0.80 0.43 97 1016.6
20260902001012 61 225 0.0 0.0 0.00 0.80 0.43 97 1016.7
20260902000512 60 225 0.0 0.0 0.00 0.80 0.43 97 1016.7
20260902000016 61 225 0.0 0.0 0.00 0.80 0.43 97 1016.6
20260901235511 60 225 0.0 0.0 0.00 0.80 0.43 97 1016.4
20260901235012 60 226 0.0 0.0 0.00 0.80 0.43 97 1016.5
20260901234511 61 225 0.0 0.0 0.00 0.80 0.43 97 1016.4
20260901233600 61 217 0.0 0.0 0.00 0.80 0.43 97 1016.2
20260901233056 61 217 0.0 0.0 0.00 0.80 0.43 97 1016.2
20260901232556 61 217 0.0 0.0 0.00 0.80 0.43 97 1016.2
20260901232056 60 217 0.0 0.0 0.00 0.80 0.43 97 1016.3
20260901231558 60 217 0.0 0.0 0.00 0.80 0.43 97 1016.4
20260901231055 60 217 0.0 0.0 0.00 0.80 0.43 97 1016.5
20260901230554 60 217 0.0 0.0 0.01 0.80 0.43 97 1016.4
20260901230056 60 217 0.0 0.0 0.01 0.80 0.43 97 1016.4
20260901225554 60 217 0.0 0.0 0.01 0.80 0.43 97 1016.4
20260901225053 60 217 0.0 0.0 0.01 0.80 0.43 97 1016.3
20260901224558 60 211 0.0 0.0 0.01 0.80 0.43 97 1016.2
20260901223546 60 211 0.0 0.0 0.01 0.80 0.43 97 1016.2
20260901223048 60 211 0.0 0.0 0.01 0.80 0.43 97 1016.3
20260901222545 60 211 0.0 0.0 0.01 0.80 0.43 97 1016.3
20260901222045 60 211 0.0 0.0 0.01 0.80 0.43 97 1016.4
20260901221546 60 211 0.0 0.0 0.01 0.80 0.43 97 1016.4
20260901221046 60 211 0.0 0.0 0.01 0.80 0.43 97 1016.4
20260901220546 60 211 0.0 0.0 0.01 0.79 0.42 97 1016.4
20260901220046 60 211 0.0 0.0 0.01 0.79 0.42 97 1016.4
20260901215545 60 210 0.0 0.0 0.02 0.79 0.42 97 1016.4
20260901215046 60 210 0.0 0.0 0.02 0.79 0.42 97 1016.4
20260901214548 60 210 0.0 0.0 0.03 0.79 0.42 97 1016.5
20260901213548 60 210 0.0 0.0 0.04 0.79 0.42 97 1016.4
20260901213045 60 210 0.0 0.0 0.05 0.79 0.42 97 1016.3
20260901212544 60 354 0.0 0.0 0.06 0.79 0.42 96 1016.3
20260901212044 59 354 0.0 0.0 0.07 0.79 0.42 96 1016.4
20260901211544 59 354 0.0 0.0 0.08 0.79 0.42 96 1016.3
20260901211044 59 354 0.0 0.0 0.08 0.79 0.42 96 1016.3
20260901210543 59 354 0.0 0.0 0.08 0.78 0.41 96 1016.3
20260901210042 60 354 0.0 0.0 0.08 0.78 0.41 96 1016.3
20260901205541 60 354 0.0 0.0 0.08 0.78 0.41 96 1016.3
20260901205040 60 354 0.0 0.0 0.07 0.77 0.40 96 1016.2
20260901204539 60 355 0.0 0.0 0.07 0.76 0.39 96 1016.1
20260901203537 60 354 0.0 0.0 0.06 0.75 0.38 96 1016.1
20260901203042 61 355 0.0 0.0 0.05 0.74 0.37 96 1016.1
20260901202536 61 355 0.0 0.0 0.04 0.73 0.36 96 1016.1
20260901202038 61 355 0.0 0.0 0.04 0.73 0.36 96 1016.0
20260901201536 61 355 0.0 0.0 0.03 0.72 0.35 96 1016.0
20260901201034 61 355 0.0 0.0 0.02 0.71 0.34 96 1016.0
20260901200537 61 355 0.0 0.0 0.02 0.71 0.34 96 1016.0
20260901200049 61 355 0.0 0.0 0.01 0.70 0.33 96 1016.0
20260901195535 61 355 0.0 0.0 0.01 0.70 0.33 96 1015.8
20260901195035 61 355 0.0 0.0 0.01 0.70 0.33 96 1015.8
20260901194544 61 359 0.0 0.0 0.00 0.69 0.32 96 1015.8